Weather History for 91557 - August, 2013

Change the Weather History Date:

Sunday, August 25, 2013

  Actual Average Record
Temperature  
Mean Temperature 74 °F -  
Max Temperature 80 °F - - ()
Min Temperature 67 °F - - ()
Cooling Degree Days 8    
Growing Degree Days 24 (Base 50)    
Moisture  
Dew Point 68 °F    
Average Humidity 83    
Maximum Humidity 94    
Minimum Humidity 58    
Precipitation  
Precipitation 0.28 in - - ()
Sea Level Pressure  
Sea Level Pressure 30.00 in    
Wind  
Wind Speed 5 mph ()    
Max Wind Speed 16 mph    
Max Gust Speed -    
Visibility 7.5 miles    
Events Rain    
T = Trace of Precipitation, MM = Missing Value Source: Averaged Metar Reports

Daily Weather History Graph

Daily Weather History Graph

Search for Another Location

Airport or City:

Trip Planner

Search our weather history database for the weather conditions in past years. The results will help you decide how hot, cold, wet, or windy it might be!

Date:

Astronomy

Aug. 25, 2013 Rise Set
Actual Time 5:59 AM VUT 5:38 PM VUT
Civil Twilight 5:37 AM VUT 6:00 PM VUT
Nautical Twilight 5:11 AM VUT 6:26 PM VUT
Astronomical Twilight 4:46 AM VUT 6:51 PM VUT
Moon 9:31 PM VUT (8/25) 8:37 AM VUT (8/25)
Length of Visible Light 12h 23m
Length of Day
11h 39m
Waning Gibbous, 81% of the Moon is Illuminated
Aug 25
Waning Gibbous
Aug 28
Last Quarter
Sep 5
New
Sep 13
First Quarter
Sep 19
Full

Hourly Weather History & Observations

Time (VUT) Temp. Dew Point Humidity Pressure Visibility Wind Dir Wind Speed Gust Speed Precip Events Conditions
12:00 AM 71.6 °F 68.0 °F 88% 30.01 in 6.2 mi ESE 3.5 mph - N/A   Mostly Cloudy
1:00 AM 69.8 °F 66.2 °F 88% 29.98 in 6.2 mi Calm Calm - N/A   Mostly Cloudy
2:00 AM 69 °F 67 °F 93% 29.98 in 12 mi 2.3 mph - -   Partly Cloudy
2:00 AM 68.0 °F 66.2 °F 94% 29.98 in 6.2 mi Variable 2.3 mph - N/A   Mostly Cloudy
3:00 AM 68.0 °F 66.2 °F 94% 29.95 in 6.2 mi Variable 2.3 mph - N/A   Mostly Cloudy
5:00 AM 71 °F 67 °F 85% 29.99 in 12 mi 2.3 mph - -   Partly Cloudy
5:00 AM 69.8 °F 66.2 °F 88% 29.98 in 6.2 mi Variable 2.3 mph - N/A   Mostly Cloudy
6:00 AM 69.8 °F 66.2 °F 88% 29.98 in 6.2 mi Variable 2.3 mph - N/A   Mostly Cloudy
7:00 AM 69.8 °F 68.0 °F 94% 30.01 in 6.2 mi Calm Calm - N/A   Mostly Cloudy
8:00 AM 75 °F 71 °F 83% 30.04 in 12 mi ESE 8.1 mph - -   Mostly Cloudy
8:00 AM 75.2 °F 69.8 °F 83% 30.04 in 6.2 mi ESE 8.1 mph - N/A   Mostly Cloudy
10:00 AM 75.2 °F 71.6 °F 89% 30.04 in 6.2 mi ESE 12.7 mph - N/A   Mostly Cloudy
11:00 AM 79 °F 67 °F 60% 30.03 in 12 mi East 16.1 mph - -   Partly Cloudy
11:00 AM 78.8 °F 66.2 °F 65% 30.01 in 6.2 mi East 16.1 mph - N/A   Mostly Cloudy
1:00 PM 77.0 °F 66.2 °F 69% 29.98 in 6.2 mi East 15.0 mph - N/A   Mostly Cloudy
2:00 PM 80 °F 68 °F 58% 29.97 in 12 mi ESE 15.0 mph - -   Partly Cloudy
2:00 PM 78.8 °F 66.2 °F 65% 29.95 in 6.2 mi ESE 15.0 mph - N/A   Mostly Cloudy
3:00 PM 77.0 °F 68.0 °F 74% 29.95 in 6.2 mi East 12.7 mph - N/A   Partly Cloudy
4:00 PM 75.2 °F 68.0 °F 78% 29.98 in 6.2 mi East 8.1 mph - N/A   Mostly Cloudy
5:00 PM 75 °F 69 °F 75% 30.00 in 12 mi ENE 4.6 mph - -   Partly Cloudy
5:00 PM 73.4 °F 68.0 °F 83% 29.98 in 6.2 mi ENE 4.6 mph - N/A   Mostly Cloudy
6:00 PM 73.4 °F 68.0 °F 83% 30.01 in 6.2 mi ENE 2.3 mph - N/A   Mostly Cloudy
7:00 PM 71.6 °F 68.0 °F 88% 30.01 in 6.2 mi ENE 2.3 mph - N/A   Mostly Cloudy
8:00 PM 72 °F 70 °F 91% 30.05 in 2 mi East 8.1 mph - - Rain Light Rain Showers
9:00 PM 71.6 °F 68.0 °F 88% 30.04 in 6.2 mi East 9.2 mph - N/A   Overcast
10:00 PM 69.8 °F 68.0 °F 94% 29.98 in 6.2 mi Variable 1.2 mph - N/A   Overcast
11:00 PM 71 °F 68 °F 87% 30.06 in 12 mi East 3.5 mph - -   Mostly Cloudy
11:00 PM 69.8 °F 68.0 °F 94% 30.06 in 6.2 mi East 3.5 mph - N/A   Mostly Cloudy